CXA8575 ZSAM-ZSZS

Flight info

Callsign CXA8575
Flight time N/A
Altitude 36100
Route DOVPU W643 FOC W644 ANLUD/K0856S1130 B221 SHZ W58 BK W67 HSN DCT BK
Aircraft B738/M-SDE2E3FGHIRWXY/LB1

Departure

Time 2026-04-29 15:15
Airport Xiamen Gaoqi International Airport (ZSAM)

Arrival

Time N/A
Airport Zhoushan Putuoshan International Airport (ZSZS)
Time Latitude Longitude Altitude Speed Heading
2026-04-29 14:50 24.53724 118.12475 71 ft 0 kts 142°
2026-04-29 15:04 24.53734 118.12466 71 ft 2 kts 142°
2026-04-29 15:04 24.53746 118.12457 71 ft 2 kts 142°
2026-04-29 15:05 24.53759 118.12448 71 ft 2 kts 165°
2026-04-29 15:05 24.53774 118.12446 71 ft 2 kts 182°
2026-04-29 15:05 24.53789 118.12449 71 ft 2 kts 201°
2026-04-29 15:05 24.53802 118.12457 71 ft 2 kts 220°
2026-04-29 15:06 24.53808 118.12463 71 ft 1 kts 231°
2026-04-29 15:06 24.53812 118.12469 71 ft 0 kts 232°
2026-04-29 15:08 24.53805 118.12460 71 ft 4 kts 230°
2026-04-29 15:08 24.53775 118.12419 71 ft 9 kts 231°
2026-04-29 15:08 24.53724 118.12350 71 ft 11 kts 230°
2026-04-29 15:08 24.53685 118.12286 71 ft 9 kts 266°
2026-04-29 15:09 24.53719 118.12233 71 ft 8 kts 326°
2026-04-29 15:09 24.53762 118.12199 71 ft 7 kts 303°
2026-04-29 15:09 24.53760 118.12148 71 ft 6 kts 245°
2026-04-29 15:09 24.53726 118.12097 71 ft 10 kts 231°
2026-04-29 15:10 24.53665 118.12018 71 ft 16 kts 230°
2026-04-29 15:10 24.53586 118.11900 71 ft 21 kts 232°
2026-04-29 15:10 24.53493 118.11770 71 ft 20 kts 231°
2026-04-29 15:10 24.53426 118.11681 71 ft 12 kts 231°
2026-04-29 15:11 24.53392 118.11618 71 ft 7 kts 259°
2026-04-29 15:11 24.53397 118.11572 71 ft 6 kts 295°
2026-04-29 15:11 24.53403 118.11556 71 ft 0 kts 284°
2026-04-29 15:12 24.53405 118.11549 71 ft 4 kts 285°
2026-04-29 15:12 24.53434 118.11488 71 ft 12 kts 323°
2026-04-29 15:12 24.53498 118.11489 71 ft 9 kts 42°
2026-04-29 15:12 24.53533 118.11536 71 ft 0 kts 52°
2026-04-29 15:14 24.53584 118.11607 71 ft 37 kts 52°
2026-04-29 15:14 24.53902 118.12050 71 ft 106 kts 51°
2026-04-29 15:14 24.54475 118.12852 72 ft 160 kts 54°
2026-04-29 15:14 24.55255 118.13908 368 ft 182 kts 51°
2026-04-29 15:15 24.56084 118.14925 1201 ft 178 kts 46°
2026-04-29 15:15 24.56919 118.15932 1837 ft 181 kts 44°
2026-04-29 15:15 24.57829 118.16947 2233 ft 194 kts 47°
2026-04-29 15:15 24.58728 118.18150 2554 ft 210 kts 52°
2026-04-29 15:16 24.59540 118.19398 3489 ft 193 kts 55°
2026-04-29 15:16 24.60288 118.20699 3805 ft 212 kts 58°
2026-04-29 15:16 24.61141 118.22111 4176 ft 227 kts 53°
2026-04-29 15:16 24.62145 118.23404 4516 ft 241 kts 45°
2026-04-29 15:17 24.63416 118.24699 4968 ft 252 kts 41°
2026-04-29 15:17 24.64763 118.26001 5485 ft 260 kts 41°
2026-04-29 15:17 24.66101 118.27325 6085 ft 263 kts 42°
2026-04-29 15:17 24.67318 118.28560 6632 ft 267 kts 42°
2026-04-29 15:18 24.68689 118.29965 7195 ft 273 kts 41°
2026-04-29 15:18 24.70103 118.31418 7772 ft 279 kts 41°
2026-04-29 15:18 24.71539 118.32892 8347 ft 285 kts 41°
2026-04-29 15:18 24.73001 118.34390 8954 ft 289 kts 40°
2026-04-29 15:19 24.74456 118.35925 9531 ft 296 kts 42°
2026-04-29 15:19 24.75890 118.37590 10133 ft 302 kts 44°
2026-04-29 15:19 24.77268 118.39264 10785 ft 304 kts 45°
2026-04-29 15:19 24.78690 118.40994 11440 ft 307 kts 45°
2026-04-29 15:20 24.80133 118.42731 12094 ft 310 kts 44°
2026-04-29 15:20 24.81603 118.44488 12735 ft 313 kts 44°
2026-04-29 15:20 24.83094 118.46247 13370 ft 316 kts 44°
2026-04-29 15:20 24.84600 118.48017 14009 ft 319 kts 44°
2026-04-29 15:21 24.86146 118.49837 14587 ft 326 kts 44°
2026-04-29 15:21 24.87715 118.51686 15137 ft 335 kts 45°
2026-04-29 15:21 24.89330 118.53581 15645 ft 345 kts 45°
2026-04-29 15:21 24.91013 118.55544 16103 ft 357 kts 44°
2026-04-29 15:22 24.92758 118.57575 16524 ft 369 kts 45°
2026-04-29 15:22 24.94554 118.59669 16746 ft 387 kts 44°
2026-04-29 15:22 24.96461 118.61901 17074 ft 401 kts 45°
2026-04-29 15:22 24.98391 118.64162 17358 ft 416 kts 45°
2026-04-29 15:23 25.00434 118.66553 17582 ft 431 kts 45°
2026-04-29 15:23 25.02544 118.69028 17829 ft 444 kts 45°
2026-04-29 15:23 25.04693 118.71548 18031 ft 458 kts 46°
2026-04-29 15:23 25.06661 118.73856 18241 ft 469 kts 46°
2026-04-29 15:24 25.08930 118.76519 18581 ft 478 kts 45°
2026-04-29 15:24 25.11213 118.79204 19103 ft 480 kts 45°
2026-04-29 15:24 25.13518 118.81918 19607 ft 483 kts 45°
2026-04-29 15:24 25.15708 118.84494 20086 ft 485 kts 45°
2026-04-29 15:25 25.18059 118.87260 20605 ft 488 kts 45°
2026-04-29 15:25 25.20397 118.90012 21079 ft 491 kts 45°
2026-04-29 15:25 25.22687 118.92709 21473 ft 495 kts 45°
2026-04-29 15:25 25.25063 118.95509 21942 ft 498 kts 45°
2026-04-29 15:26 25.27171 118.97997 22275 ft 502 kts 45°
2026-04-29 15:26 25.29583 119.00826 22668 ft 506 kts 45°
2026-04-29 15:26 25.32034 119.03685 23131 ft 509 kts 45°
2026-04-29 15:26 25.34488 119.06538 23507 ft 513 kts 44°
2026-04-29 15:27 25.36953 119.09403 23976 ft 515 kts 45°
2026-04-29 15:27 25.39319 119.12151 24397 ft 518 kts 45°
2026-04-29 15:27 25.41849 119.15094 24779 ft 522 kts 45°
2026-04-29 15:27 25.44071 119.17681 25228 ft 523 kts 44°
2026-04-29 15:28 25.46606 119.20630 25562 ft 527 kts 45°
2026-04-29 15:28 25.49159 119.23605 25934 ft 531 kts 45°
2026-04-29 15:28 25.51717 119.26592 26371 ft 532 kts 45°
2026-04-29 15:28 25.54202 119.29497 26705 ft 536 kts 45°
2026-04-29 15:29 25.56587 119.32298 27003 ft 539 kts 45°
2026-04-29 15:29 25.61168 119.37701 28026 ft 534 kts 45°
2026-04-29 15:30 25.65878 119.43287 29266 ft 527 kts 45°
2026-04-29 15:30 25.68380 119.46258 29829 ft 525 kts 45°
2026-04-29 15:30 25.70756 119.49080 30251 ft 526 kts 45°
2026-04-29 15:30 25.73172 119.51939 30645 ft 527 kts 45°
2026-04-29 15:31 25.75810 119.54883 31024 ft 528 kts 41°
2026-04-29 15:31 25.77940 119.56947 31371 ft 526 kts 36°
2026-04-29 15:31 25.80825 119.59309 31993 ft 520 kts 31°
2026-04-29 15:31 25.83887 119.61392 32672 ft 512 kts 26°
2026-04-29 15:32 25.87031 119.63259 33361 ft 505 kts 23°
2026-04-29 15:32 25.89673 119.64718 33879 ft 502 kts 22°
2026-04-29 15:32 25.92505 119.66232 34403 ft 499 kts 22°
2026-04-29 15:32 25.95643 119.67885 34743 ft 501 kts 22°
2026-04-29 15:33 25.98714 119.69504 34923 ft 505 kts 22°
2026-04-29 15:33 26.01519 119.70998 35099 ft 509 kts 22°
2026-04-29 15:33 26.04350 119.72436 35245 ft 510 kts 18°
2026-04-29 15:33 26.07705 119.73791 35500 ft 509 kts 13°
2026-04-29 15:34 26.10411 119.74596 35815 ft 504 kts
2026-04-29 15:34 26.11457 119.74841 35969 ft 501 kts
2026-04-29 15:34 26.13539 119.75213 36136 ft 497 kts